Robert Movsisyan

Olheiro-Chefe - Pyunik
5 Dez 2027
Domingo
Processo

Personalidade

Adaptabilidade (9) Ambição (1) Controvérsia (4) Lealdade (13) Pressão (18) Profissionalismo (15) Espírito Esportivo (10) Temperamento (7)

Perfil

Estilo de Treinamento Democrático
Licença Continental B
Determinação 11
Gestão de Pessoas 10
Motivação 9
Disciplina 4
Satisfação no Trabalho
91%
Fadiga
0%
Função Olheiro-Chefe
Salário 65.0K p/s
Contrato 14.03.2030

Desempenho

Comportamento Bom
Eficácia do Treinamento
44%
Desenvolvimento do Jogador
40%
Prevenção de Lesões
15%
Implementação Tática
55%

Eventos Recentes

Participou de uma reunião de recrutamento 14d atrás
Participou de uma reunião de recrutamento 21d atrás
Participou de uma reunião de recrutamento 28d atrás
Participou de uma reunião de recrutamento 35d atrás
Participou de uma reunião de recrutamento 42d atrás
Participou de uma reunião de recrutamento 49d atrás
Avaliou um jogador 56d atrás
Avaliou um jogador 56d atrás

Monitorando agora

67
Jogador Clube Status Habilidade Confiança Observado Última observação Último voto
Marcus Vinicius BATE Ativo 121 / 100 40% 5 10.10.2027 -
Lucas Ríos Atlanta Ativo 108 / 129 40% 2 10.10.2027 -
Tomás Bolzicco Chaco For Ever Ativo 119 / 103 40% 1 08.10.2027 -
Facundo Pons San Martín Ativo 101 / 117 40% 1 08.10.2027 -
Igor Komarov Zugdidi Ativo 113 / 95 40% 4 07.10.2027 -
Junior Paredes Trujillanos Ativo 90 / 108 40% 1 07.10.2027 -
Luca Martínez Dupuy Godoy Cruz Ativo 104 / 130 40% 3 06.10.2027 -
Thiago Calone All Boys Ativo 105 / 121 40% 2 06.10.2027 -
Alan Bonansea Colón Ativo 104 / 104 40% 2 05.10.2027 -
Oscar Belinetz Agropecuario Argentino Ativo 119 / 108 40% 5 05.10.2027 -
Victor Mbaoma Tusker Ativo 87 / 95 40% 4 04.10.2027 -
Lisandro Cabrera Maipú Ativo 99 / 102 40% 1 04.10.2027 -
Tomás Attis Patronato Ativo 113 / 120 40% 2 03.10.2027 -
Leonel Barrios Talleres Ativo 82 / 108 40% 3 02.10.2027 -
Facundo Castelli Estudiantes Ativo 106 / 113 40% 1 02.10.2027 -
Sunday Megwo Abia Warriors Ativo 95 / 92 40% 6 30.09.2027 -
Joseph Atule Barau Ativo 98 / 87 40% 2 30.09.2027 -
Richard Celis Zamora Ativo 98 / 111 40% 4 27.09.2027 -
Nicolás Servetto Madryn Ativo 114 / 117 40% 2 26.09.2027 -
Flamarion Pakhtakor Ativo 126 / 105 40% 1 26.09.2027 -
Matías Sosa Arsenal Ativo 102 / 115 40% 3 25.09.2027 -
Rafael Arace Mineros de Guayana Ativo 104 / 114 40% 3 22.09.2027 -
Gonzalo Berterame Morón Ativo 101 / 116 40% 1 22.09.2027 -
Ignacio Lago Colón Ativo 137 / 131 40% 2 19.09.2027 -
Alexander Díaz Deportivo Riestra Ativo 134 / 130 40% 3 18.09.2027 -
Nicolás Heiz Maipú Ativo 98 / 110 40% 1 17.09.2027 -
Lucas Pedraza Defensores Unidos Ativo 95 / 111 40% 1 16.09.2027 -
Luca Franco Arsenal Ativo 107 / 118 40% 3 12.09.2027 -
Carlos Auzqui Agropecuario Argentino Ativo 118 / 114 40% 1 12.09.2027 -
Gianluca Pugliese Güemes Ativo 113 / 123 40% 1 06.09.2027 -
Wilson Barrios Estudiantes de Caracas Ativo 110 / 102 40% 3 03.09.2027 -
Lamine Diakité Djoliba Ativo 113 / 109 40% 2 03.09.2027 -
Jonathan Cañete Portuguesa Ativo 113 / 107 40% 2 02.09.2027 -
Guram Janelidze Tskhinvali Ativo 104 / 107 40% 3 26.08.2027 -
Siaka Diaby Stade Malien Ativo 107 / 101 40% 3 25.08.2027 -
Chukwudi Okoro Nasarawa United Ativo 96 / 86 40% 1 25.08.2027 -
Tyshick Mosengo Kenya Police Ativo 85 / 84 40% 1 23.08.2027 -
Richard Figueroa Deportivo Lara Ativo 125 / 101 40% 1 21.08.2027 -
Ezekiel Edidiong Enyimba Ativo 93 / 83 40% 2 18.08.2027 -
Djibril Coulibaly Real Bamako Ativo 100 / 101 40% 1 16.08.2027 -
Moussakoye Diallo Stade Malien Ativo 115 / 102 40% 2 12.08.2027 -
Simy Al-Orobah Ativo 126 / 112 40% 3 09.08.2027 -
Ramón Villalba Hatayspor Ativo 98 / 106 40% 2 07.08.2027 -
José Balza Deportivo Tachira Ativo 124 / 100 40% 2 03.08.2027 -
Mamadou Sidibé AS Police Ativo 102 / 85 40% 1 03.08.2027 -
Simone Ianesi Pianese Ativo 97 / 107 40% 1 01.08.2027 -
Francisco Valencia Llaneros Ativo 120 / 101 40% 2 31.07.2027 -
Aaron Drinan Swindon Town Ativo 118 / 99 40% 3 30.07.2027 -
Rubén Rojas Portuguesa Ativo 107 / 108 40% 1 29.07.2027 -
Kleyder Barreto Aragua Ativo 75 / 98 40% 1 29.07.2027 -
Juan David Rueda Alianza Petrolera Ativo 112 / 125 40% 1 27.07.2027 -
Jordan Ayew Leicester City Ativo 138 / 133 40% 1 27.07.2027 -
Ahmed Khaled Al Gaish Ativo 84 / 81 40% 1 16.07.2027 -
Jamal Lowe Sheffield Wednesday Ativo 106 / 100 40% 1 11.07.2027 -
Jonah James Inter Allies Ativo 94 / 82 40% 1 08.07.2027 -
Kamran Aliev SKA Khabarovsk Ativo 102 / 103 40% 1 07.07.2027 -
Abu-Said Eldarushev Rotor Ativo 109 / 86 40% 1 07.07.2027 -
François Kamano Sochi Ativo 103 / 112 40% 1 05.07.2027 -
Georginio Wijnaldum Al-Ettifaq Ativo 122 / 128 40% 1 01.07.2027 -
Ilja Azyavin Arsenal Tula Ativo 76 / 87 40% 1 30.06.2027 -
Jevan Beattie Harrogate Town Ativo 91 / 92 40% 1 27.06.2027 -
Gabriel Cordova Atletico Venezuela Ativo 95 / 80 40% 1 27.06.2027 -
Joel Godoy Gill Chaika Ativo 106 / 72 40% 1 26.06.2027 -
Zoumana Simpara Djoliba Ativo 113 / 98 40% 1 24.06.2027 -
Artem Poliarus Urartu Ativo 90 / 101 48% 1 21.06.2027 -
Yaroslav Matyukhin Alashkert Ativo 102 / 96 41% 1 31.08.2026 -
Brian Bustos Platense Ativo 136 / 123 40% 1 01.08.2026 -